Home   Weather   San Jose   Past weeks

Flag for USA Past Weather in San Jose, California, USA — Yesterday and Last 2 Weeks

Now
57 °F

Mostly cloudy.


Feels Like: 55 °F
Forecast: 54 / 67 °F
Wind: 8 mph from Northwest

Location: San Jose International Airport

Current Time: Sep 30, 2016 at 8:24:53 AM

Latest Report: Sep 30, 2016 at 7:53 AM


Visibility: 7 mi

Pressure: 30.13 "Hg

Humidity: 78%

Dew Point: 50 °F

Location of San JoseLocation

Past Weather in San Jose — Graph

°F

San Jose Temperature Yesterday

Maximum temperature yesterday: 72 °F (at 12:53 PM)
Minimum temperature yesterday: 57 °F (at 4:53 AM)
Average temperature yesterday: 63 °F

High & Low Weather Summary for the Past Weeks

 TemperatureHumidityPressure
High98 °F (Sep 26, 2:53 PM)87% (Sep 17, 6:53 AM)30.16 "Hg (Sep 17, 6:53 AM)
Low53 °F (Sep 23, 6:53 AM)11% (Sep 27, 2:53 PM)29.80 "Hg (Sep 27, 5:53 PM)
Average70 °F55%29.98 "Hg
* Reported Sep 15 6:53 AM — Sep 30 6:53 AM, San Jose, Weather by CustomWeather, © 2016

Note: Actual official high and low records may vary slightly from our data, if they occured in-between our weather recording intervals... More about our weather records

Advertising

San Jose Weather History for the Previous 24 Hours

Scroll right to see more
 ConditionsComfort  
Time TempWeatherWind HumidityBarometerVisibility
6:53 AM
Fri, Sep 30
57 °FMostly cloudy.7 mph78%30.12 "Hg6 mi
5:53 AM57 °FMostly cloudy.No wind81%30.11 "Hg6 mi
4:53 AM56 °FOvercast.6 mph81%30.10 "Hg10 mi
3:53 AM57 °FOvercast.5 mph78%30.10 "Hg10 mi
2:53 AM57 °FOvercast.5 mph81%30.10 "Hg10 mi
1:53 AM57 °FOvercast.5 mph83%30.10 "Hg10 mi
12:53 AM57 °FOvercast.6 mph81%30.10 "Hg10 mi
12:00 AM57 °FPassing clouds.9 mph83%30.10 "Hg10 mi
10:53 PM
Thu, Sep 29
57 °FPassing clouds.9 mph83%30.09 "Hg10 mi
9:53 PM58 °FPassing clouds.10 mph81%30.08 "Hg10 mi
8:53 PM60 °FPassing clouds.9 mph75%30.07 "Hg10 mi
7:53 PM61 °FPassing clouds.7 mph72%30.05 "Hg10 mi
6:53 PM62 °FPassing clouds.9 mph67%30.05 "Hg10 mi
5:53 PM67 °FPassing clouds.12 mph59%30.04 "Hg10 mi
4:53 PM69 °FPassing clouds.13 mph57%30.04 "Hg10 mi
3:53 PM69 °FPassing clouds.14 mph59%30.05 "Hg10 mi
2:53 PM71 °FPassing clouds.10 mph57%30.05 "Hg10 mi
1:53 PM71 °FPassing clouds.10 mph55%30.05 "Hg10 mi
12:53 PM72 °FPassing clouds.8 mph55%30.07 "Hg8 mi
11:53 AM71 °FScattered clouds.9 mph57%30.08 "Hg7 mi
10:53 AM66 °FHaze.No wind65%30.08 "Hg6 mi
9:53 AM63 °FHaze.5 mph73%30.08 "Hg6 mi
8:53 AM60 °FMostly cloudy.No wind78%30.06 "Hg4 mi
Weather by CustomWeather, © 2016

See weather overviewHow to use our weather pages